HORYU-4 (41340 NORAD) Tracking and Keplerian Element Data

This shows tracking and keplerian element data for the satellite.

Feedback or suggestion? Click here.




ElementValue
Catalog41340
NameHORYU-4
Epoch Orbit22618
Epoch Day91.71873953
Epoch Year2020
RAAN106.8102
Inclination31.0045
Eccentricity0.001393
Argument of Perigee97.2596
Mean Anonmoly262.9624
Mean Motion15.01451573
Decay Rate4.74E-06
L11 41340U 16012D 20091.71873953 .00000474 00000-0 29133-4 0 9994
L22 41340 31.0045 106.8102 0013930 97.2596 262.9624 15.01451573226181

Live tracking and technical data element details for HORYU-4 (NORAD 41340). HORYU-4 can be tracked NOW for your location showing map with azimuth and elevation plus other details from your city location.

Track the satellite on the map from your city or location and see movement details for azimuth, elevation, latitude, longitude, range, height, and movement on the map or in text.







IsCatalogInMostPopularTable: catalog: 41340, numindb: 329
Update: records affected: 1



GetName: 41340 HORYU-4

Hit Count: updated at: Fri, 03 Apr 2020 06:57:03 GMT